This is the latest recevied weather packets stored in our database for station/object N1ORT. If no packets are shown the sender has not sent any weather packets the latest 10 day(s).
| Time | Temp. | Humidity | Pressure | Rain* | Wind** | Luminosity | Snow |
|---|---|---|---|---|---|---|---|
| 1778022584 | 24.44° C | 43% | 1004.4 hPa | 0 mm | - | 23 W/m² | - |
| 1778022282 | 24.44° C | 43% | 1004.3 hPa | 0 mm | - | 27 W/m² | - |
| 1778021978 | 24.44° C | 42% | 1004.1 hPa | 0 mm | - | 32 W/m² | - |
| 1778021675 | 25° C | 42% | 1004.2 hPa | 0 mm | - | 38 W/m² | - |
| 1778021371 | 25° C | 41% | 1004.1 hPa | 0 mm | - | 48 W/m² | - |
| 1778021068 | 25° C | 41% | 1004 hPa | 0 mm | - | 57 W/m² | - |
| 1778020765 | 25.56° C | 41% | 1004.1 hPa | 0 mm | - | 67 W/m² | - |
| 1778020462 | 25.56° C | 41% | 1003.9 hPa | 0 mm | - | 72 W/m² | - |
| 1778020158 | 25.56° C | 40% | 1004 hPa | 0 mm | - | 78 W/m² | - |
| 1778019855 | 25.56° C | 40% | 1003.8 hPa | 0 mm | - | 83 W/m² | - |
| 1778019551 | 26.11° C | 39% | 1003.8 hPa | 0 mm | - | 90 W/m² | - |
| 1778019248 | 26.11° C | 41% | 1003.5 hPa | 0 mm | - | 97 W/m² | - |
| 1778018945 | 26.67° C | 38% | 1003.4 hPa | 0 mm | - | 97 W/m² | - |
| 1778018642 | 26.67° C | 38% | 1003.2 hPa | 0 mm | - | 97 W/m² | - |
| 1778018340 | 26.67° C | 37% | 1003.2 hPa | 0 mm | - | 104 W/m² | - |
| 1778018037 | 26.67° C | 37% | 1003.4 hPa | 0 mm | - | 117 W/m² | - |
| 1778017735 | 26.67° C | 37% | 1003.2 hPa | 0 mm | - | 116 W/m² | - |
| 1778017433 | 26.67° C | 37% | 1003.2 hPa | 0 mm | - | 115 W/m² | - |
| 1778017130 | 26.67° C | 36% | 1003.2 hPa | 0 mm | - | 117 W/m² | - |
| 1778016828 | 27.22° C | 37% | 1003.1 hPa | 0 mm | - | 102 W/m² | - |
| 1778016523 | 27.22° C | 35% | 1003.2 hPa | 0 mm | - | 145 W/m² | - |
| 1778016221 | 27.22° C | 36% | 1003 hPa | 0 mm | - | 168 W/m² | - |
| 1778015916 | 26.67° C | 36% | 1003.3 hPa | 0 mm | - | 100 W/m² | - |
| 1778015614 | 27.22° C | 35% | 1003.3 hPa | 0 mm | - | 106 W/m² | - |
| 1778015311 | 27.78° C | 35% | 1003 hPa | 0 mm | - | 149 W/m² | - |
* Rain latest hour (hover to see other rain measurements)
** Current wind speed in m/s (hover to see current wind gust speed)